Location: Canazei
(46.4667°N, 11.7667°E)
Time: 05:03:32
(UTC+00:00)

USA 307 - Pass Details

Date: 21 April 2021
Orbit: 566 x 577 km, 54.0° (Epoch: 07 May)

Event Time Altitude Azimuth Distance (km) Brightness Sun altitude
Rises 03:11:35 0° 301° (WNW) 2,789 6.1 -10.8°
Reaches altitude 10° 03:13:55 10° 307° (NW) 1,890 5.3 -10.5°
Maximum altitude 03:18:05 47° 22° (NNE) 767 3.9 -9.8°
Drops below altitude 10° 03:22:15 10° 97° (E) 1,887 6.5 -9.2°
Sets 03:24:34 0° 104° (ESE) 2,784 7.2 -8.9°
